Terminal Aerodrome Forecast
Issued by NWS Billings, MT

Home | Current Version | Previous Version | Graphics & Text | Print | Product List | Glossary On
Versions: 1 2 3 4 5 6 7 8 9 10 11 12 13 14 15 16 17 18 19 20 21 22 23 24 25 26
000
FTUS45 KBYZ 310040 AAA
TAFMLS
TAF AMD
KMLS 310040Z 3101/3124 31013G18KT P6SM SKC
     FM310200 04006KT P6SM SKC
     FM312000 27008KT P6SM FEW110=

USA.gov is the U.S. government's official web portal to all federal, state and local government web resources and services.